| time (UTC) | temp F | wind direction | speed knots | gust knots | rain 1hr in | rain 24hr in | rain mn in | humidity % | barometer mb |
| 20260504232008 | 58 | 45 | 1.7 | 2.6 | 0.00 | 0.00 | 0.00 | 67 | 1009.9 |
| 20260504231005 | 57 | 90 | 0.9 | 2.6 | 0.00 | 0.00 | 0.00 | 69 | 1010.2 |
| 20260504230015 | 57 | 90 | 0.9 | 1.7 | 0.00 | 0.00 | 0.00 | 69 | 1010.3 |
| 20260504225007 | 56 | 45 | 0.9 | 2.6 | 0.00 | 0.00 | 0.00 | 71 | 1010.4 |
| 20260504224008 | 55 | 45 | 0.9 | 1.7 | 0.00 | 0.00 | 0.00 | 72 | 1010.5 |
| 20260504223010 | 55 | 45 | 0.0 | 0.9 | 0.00 | 0.00 | 0.00 | 76 | 1010.7 |
| 20260504222008 | 55 | 45 | 0.9 | 1.7 | 0.00 | 0.00 | 0.00 | 77 | 1010.8 |
| 20260504221006 | 55 | 45 | 0.0 | 0.9 | 0.00 | 0.00 | 0.00 | 77 | 1010.7 |
| 20260504220011 | 55 | 45 | 0.9 | 1.7 | 0.00 | 0.00 | 0.00 | 76 | 1010.7 |
| 20260504215006 | 56 | 0 | 1.7 | 2.6 | 0.00 | 0.00 | 0.00 | 73 | 1010.8 |
| 20260504214009 | 57 | 0 | 0.9 | 2.6 | 0.00 | 0.00 | 0.00 | 71 | 1010.7 |
| 20260504213009 | 56 | 90 | 0.0 | 1.7 | 0.00 | 0.00 | 0.00 | 75 | 1010.8 |
| 20260504212009 | 57 | 90 | 0.0 | 0.9 | 0.00 | 0.00 | 0.00 | 75 | 1010.9 |
| 20260504210012 | 58 | 180 | 0.0 | 0.9 | 0.00 | 0.00 | 0.00 | 73 | 1010.9 |
| 20260504205009 | 58 | 45 | 0.9 | 2.6 | 0.00 | 0.00 | 0.00 | 72 | 1010.8 |
| 20260504204008 | 59 | 0 | 0.9 | 3.5 | 0.00 | 0.00 | 0.00 | 71 | 1010.8 |
| 20260504202008 | 59 | 0 | 0.0 | 1.7 | 0.00 | 0.00 | 0.00 | 70 | 1010.7 |
| 20260504201007 | 59 | 135 | 0.9 | 3.5 | 0.00 | 0.00 | 0.00 | 70 | 1010.8 |
| 20260504200013 | 59 | 90 | 0.0 | 0.9 | 0.00 | 0.00 | 0.00 | 73 | 1010.7 |
| 20260504195009 | 60 | 0 | 0.0 | 0.9 | 0.00 | 0.00 | 0.00 | 72 | 1010.6 |
| 20260504194009 | 60 | 0 | 0.0 | 1.7 | 0.00 | 0.00 | 0.00 | 69 | 1010.5 |
| 20260504193010 | 60 | 0 | 0.0 | 0.9 | 0.00 | 0.00 | 0.00 | 71 | 1010.8 |
| 20260504192009 | 61 | 90 | 0.0 | 0.9 | 0.00 | 0.00 | 0.00 | 70 | 1010.7 |
| 20260504191007 | 62 | 45 | 0.0 | 0.9 | 0.00 | 0.00 | 0.00 | 70 | 1010.6 |
| 20260504190013 | 62 | 0 | 0.0 | 0.9 | 0.00 | 0.00 | 0.00 | 69 | 1010.4 |
| 20260504185009 | 63 | 0 | 0.0 | 0.9 | 0.00 | 0.00 | 0.00 | 68 | 1010.3 |
| 20260504184009 | 63 | 0 | 0.0 | 1.7 | 0.00 | 0.00 | 0.00 | 66 | 1010.2 |
| 20260504183010 | 63 | 0 | 0.0 | 1.7 | 0.00 | 0.00 | 0.00 | 66 | 1010.3 |
| 20260504182009 | 64 | 90 | 0.0 | 0.9 | 0.00 | 0.00 | 0.00 | 64 | 1010.3 |
| 20260504181006 | 65 | 0 | 0.9 | 1.7 | 0.00 | 0.00 | 0.00 | 63 | 1010.1 |
| 20260504180012 | 65 | 270 | 0.0 | 1.7 | 0.00 | 0.00 | 0.00 | 63 | 1010.1 |
| 20260504175008 | 67 | 0 | 0.0 | 0.9 | 0.00 | 0.00 | 0.00 | 62 | 1009.9 |
| 20260504174008 | 68 | 0 | 0.9 | 1.7 | 0.00 | 0.00 | 0.00 | 59 | 1009.8 |
| 20260504173010 | 69 | 0 | 0.0 | 1.7 | 0.00 | 0.00 | 0.00 | 60 | 1009.8 |
| 20260504171009 | 71 | 0 | 0.9 | 1.7 | 0.00 | 0.00 | 0.00 | 58 | 1009.8 |
| 20260504151008 | 76 | 270 | 0.0 | 2.6 | 0.00 | 0.00 | 0.00 | 39 | 1009.9 |
| 20260504141006 | 78 | 270 | 0.9 | 1.7 | 0.00 | 0.00 | 0.00 | 40 | 1010.2 |
| 20260504081006 | 66 | 135 | 3.5 | 5.2 | 0.00 | 0.00 | 0.00 | 49 | 1013.1 |
| 20260504050012 | 53 | 90 | 0.0 | 1.7 | 0.00 | 0.00 | 0.00 | 59 | 1013.3 |
| 20260504045007 | 53 | 90 | 0.0 | 1.7 | 0.00 | 0.00 | 0.00 | 59 | 1013.3 |
| 20260504043010 | 53 | 90 | 0.0 | 1.7 | 0.00 | 0.00 | 0.00 | 59 | 1013.3 |
| 20260504042013 | 53 | 90 | 0.0 | 1.7 | 0.00 | 0.00 | 0.00 | 59 | 1013.3 |
| 20260504040013 | 53 | 90 | 0.0 | 1.7 | 0.00 | 0.00 | 0.00 | 59 | 1013.3 |
| 20260504035009 | 54 | 135 | 0.9 | 1.7 | 0.00 | 0.00 | 0.00 | 56 | 1013.1 |
| 20260504034009 | 55 | 90 | 0.9 | 1.7 | 0.00 | 0.00 | 0.00 | 56 | 1013.0 |
| 20260504033009 | 55 | 90 | 0.9 | 3.5 | 0.00 | 0.00 | 0.00 | 55 | 1013.1 |
| 20260504031008 | 56 | 135 | 1.7 | 3.5 | 0.00 | 0.00 | 0.00 | 52 | 1013.0 |
| 20260504030013 | 56 | 90 | 2.6 | 4.3 | 0.00 | 0.00 | 0.00 | 51 | 1012.9 |
| 20260504025008 | 57 | 45 | 2.6 | 5.2 | 0.00 | 0.00 | 0.00 | 50 | 1012.8 |
| 20260504024009 | 57 | 90 | 3.5 | 6.1 | 0.00 | 0.00 | 0.00 | 50 | 1012.7 |
| 20260504023010 | 57 | 0 | 3.5 | 7.0 | 0.00 | 0.00 | 0.00 | 50 | 1012.6 |
| 20260504022011 | 57 | 90 | 3.5 | 5.2 | 0.00 | 0.00 | 0.00 | 50 | 1012.6 |
| 20260504021009 | 57 | 90 | 2.6 | 5.2 | 0.00 | 0.00 | 0.00 | 50 | 1012.7 |
| 20260504015008 | 57 | 90 | 2.6 | 6.1 | 0.00 | 0.00 | 0.00 | 50 | 1012.8 |
| 20260504014009 | 57 | 135 | 2.6 | 5.2 | 0.00 | 0.00 | 0.00 | 50 | 1012.8 |
| 20260504013009 | 57 | 90 | 1.7 | 3.5 | 0.00 | 0.00 | 0.00 | 51 | 1012.6 |
| 20260504012009 | 57 | 90 | 1.7 | 3.5 | 0.00 | 0.00 | 0.00 | 50 | 1012.7 |
| 20260504011013 | 57 | 90 | 1.7 | 4.3 | 0.00 | 0.00 | 0.00 | 50 | 1012.6 |
| 20260504010012 | 58 | 90 | 1.7 | 3.5 | 0.00 | 0.00 | 0.00 | 49 | 1012.6 |
| 20260504005008 | 58 | 90 | 3.5 | 6.1 | 0.00 | 0.00 | 0.00 | 48 | 1012.4 |
| 20260504004008 | 58 | 90 | 2.6 | 5.2 | 0.00 | 0.00 | 0.00 | 49 | 1012.6 |
| 20260504003010 | 58 | 90 | 2.6 | 4.3 | 0.00 | 0.00 | 0.00 | 48 | 1012.5 |
| 20260504002009 | 58 | 135 | 2.6 | 4.3 | 0.00 | 0.00 | 0.00 | 48 | 1012.5 |
| 20260504001009 | 58 | 90 | 2.6 | 4.3 | 0.00 | 0.00 | 0.00 | 48 | 1012.5 |
| 20260504000012 | 58 | 90 | 2.6 | 5.2 | 0.00 | 0.00 | 0.00 | 48 | 1012.6 |
| 20260503235006 | 58 | 90 | 2.6 | 4.3 | 0.00 | 0.00 | 0.00 | 48 | 1012.6 |
| 20260503234008 | 58 | 90 | 1.7 | 6.1 | 0.00 | 0.00 | 0.00 | 49 | 1012.6 |
| 20260503233010 | 58 | 90 | 1.7 | 3.5 | 0.00 | 0.00 | 0.00 | 49 | 1012.7 |